Time,TemperatureF,DewpointF,PressureIn,WindDirection,WindDirectionDegrees,WindSpeedMPH,WindSpeedGustMPH,Humidity,HourlyPrecipIn,Conditions,Clouds,dailyrainin,SolarRadiationWatts/m^2,SoftwareType,DateUTC
2013-05-29 00:02:00,55.0,54.0,-100.00,East,98,5.0,6.0,98,0.00,,,0.00,0.000000,,2013-05-29 05:02:00,
2013-05-29 00:11:00,53.0,53.0,-100.00,SSE,153,4.0,8.0,100,0.00,,,0.00,0.000000,,2013-05-29 05:11:00,
2013-05-29 00:33:00,53.0,53.0,-100.00,SSE,153,4.0,8.0,100,0.00,,,0.00,0.000000,,2013-05-29 05:33:00,
2013-05-29 00:42:00,53.0,53.0,-100.00,SSE,153,4.0,8.0,100,0.00,,,0.00,0.000000,,2013-05-29 05:42:00,
2013-05-29 00:52:00,53.0,53.0,-100.00,SSE,153,4.0,8.0,100,0.00,,,0.00,0.000000,,2013-05-29 05:52:00,
2013-05-29 01:01:00,53.0,53.0,-100.00,SSE,153,4.0,8.0,100,0.00,,,0.00,0.000000,,2013-05-29 06:01:00,
2013-05-29 01:11:00,52.0,52.0,-100.00,SSE,164,4.0,7.0,100,0.00,,,0.00,0.000000,,2013-05-29 06:11:00,
2013-05-29 01:32:00,52.0,52.0,-100.00,SSE,164,4.0,7.0,100,0.00,,,0.00,0.000000,,2013-05-29 06:32:00,
2013-05-29 01:42:00,52.0,52.0,-100.00,SSE,164,4.0,7.0,100,0.00,,,0.00,0.000000,,2013-05-29 06:42:00,
2013-05-29 01:52:00,52.0,52.0,-100.00,SSE,164,4.0,7.0,100,0.00,,,0.00,0.000000,,2013-05-29 06:52:00,
2013-05-29 02:01:00,52.0,52.0,-100.00,SSE,164,4.0,7.0,100,0.00,,,0.00,0.000000,,2013-05-29 07:01:00,
2013-05-29 02:11:00,51.0,51.0,-100.00,SSE,162,3.0,5.0,100,0.00,,,0.00,0.000000,,2013-05-29 07:11:00,
2013-05-29 02:34:00,51.0,51.0,-100.00,SSE,162,3.0,5.0,100,0.00,,,0.00,0.000000,,2013-05-29 07:34:00,
2013-05-29 02:42:00,51.0,51.0,-100.00,SSE,162,3.0,5.0,100,0.00,,,0.00,0.000000,,2013-05-29 07:42:00,
2013-05-29 02:52:00,51.0,51.0,-100.00,SSE,162,3.0,5.0,100,0.00,,,0.00,0.000000,,2013-05-29 07:52:00,
2013-05-29 03:02:00,51.0,51.0,-100.00,SSE,162,3.0,5.0,100,0.00,,,0.00,0.000000,,2013-05-29 08:02:00,
2013-05-29 03:11:00,50.0,50.0,-100.00,SSE,164,1.0,4.0,100,0.00,,,0.00,0.000000,,2013-05-29 08:11:00,
2013-05-29 03:32:00,50.0,50.0,-100.00,SSE,164,1.0,4.0,100,0.00,,,0.00,0.000000,,2013-05-29 08:32:00,
2013-05-29 03:42:00,50.0,50.0,-100.00,SSE,164,1.0,4.0,100,0.00,,,0.00,0.000000,,2013-05-29 08:42:00,
2013-05-29 03:52:00,50.0,50.0,-100.00,SSE,164,1.0,4.0,100,0.00,,,0.00,0.000000,,2013-05-29 08:52:00,
2013-05-29 04:01:00,50.0,50.0,-100.00,SSE,164,1.0,4.0,100,0.00,,,0.00,0.000000,,2013-05-29 09:01:00,
2013-05-29 04:11:00,49.0,49.0,-100.00,SE,124,3.0,5.0,100,0.00,,,0.00,0.000000,,2013-05-29 09:11:00,
2013-05-29 04:33:00,49.0,49.0,-100.00,SE,124,3.0,5.0,100,0.00,,,0.00,0.000000,,2013-05-29 09:33:00,
2013-05-29 04:42:00,49.0,49.0,-100.00,SE,124,3.0,5.0,100,0.00,,,0.00,0.000000,,2013-05-29 09:42:00,
2013-05-29 04:52:00,49.0,49.0,-100.00,SE,124,3.0,5.0,100,0.00,,,0.00,0.000000,,2013-05-29 09:52:00,
2013-05-29 05:03:00,49.0,49.0,-100.00,SE,124,3.0,5.0,100,0.00,,,0.00,0.000000,,2013-05-29 10:03:00,
2013-05-29 05:11:00,51.0,51.0,-100.00,East,91,4.0,6.0,100,0.00,,,0.00,0.000000,,2013-05-29 10:11:00,
2013-05-29 05:33:00,51.0,51.0,-100.00,East,91,4.0,6.0,100,0.00,,,0.00,0.000000,,2013-05-29 10:33:00,
2013-05-29 05:42:00,51.0,51.0,-100.00,East,91,4.0,6.0,100,0.00,,,0.00,0.000000,,2013-05-29 10:42:00,
2013-05-29 05:53:00,51.0,51.0,-100.00,East,91,4.0,6.0,100,0.00,,,0.00,0.000000,,2013-05-29 10:53:00,
2013-05-29 06:02:00,51.0,51.0,-100.00,East,91,4.0,6.0,100,0.00,,,0.00,0.000000,,2013-05-29 11:02:00,
2013-05-29 06:11:00,51.0,51.0,-100.00,East,89,4.0,6.0,100,0.00,,,0.00,8.000000,,2013-05-29 11:11:00,
2013-05-29 06:32:00,51.0,51.0,-100.00,East,89,4.0,6.0,100,0.00,,,0.00,8.000000,,2013-05-29 11:32:00,
2013-05-29 06:42:00,51.0,51.0,-100.00,East,89,4.0,6.0,100,0.00,,,0.00,8.000000,,2013-05-29 11:42:00,
2013-05-29 06:52:00,51.0,51.0,-100.00,East,89,4.0,6.0,100,0.00,,,0.00,8.000000,,2013-05-29 11:52:00,
2013-05-29 07:01:00,51.0,51.0,-100.00,East,89,4.0,6.0,100,0.00,,,0.00,8.000000,,2013-05-29 12:01:00,
2013-05-29 07:11:00,54.0,54.0,-100.00,SSE,151,8.0,11.0,100,0.00,,,0.00,48.000000,,2013-05-29 12:11:00,
2013-05-29 07:32:00,54.0,54.0,-100.00,SSE,151,8.0,11.0,100,0.00,,,0.00,48.000000,,2013-05-29 12:32:00,
2013-05-29 07:42:00,54.0,54.0,-100.00,SSE,151,8.0,11.0,100,0.00,,,0.00,48.000000,,2013-05-29 12:42:00,
2013-05-29 07:52:00,54.0,54.0,-100.00,SSE,151,8.0,11.0,100,0.00,,,0.00,48.000000,,2013-05-29 12:52:00,
2013-05-29 08:02:00,54.0,54.0,-100.00,SSE,151,8.0,11.0,100,0.00,,,0.00,48.000000,,2013-05-29 13:02:00,
2013-05-29 08:11:00,57.0,57.0,-100.00,SE,139,8.0,14.0,100,0.00,,,0.00,182.000000,,2013-05-29 13:11:00,
2013-05-29 08:32:00,57.0,57.0,-100.00,SE,139,8.0,14.0,100,0.00,,,0.00,182.000000,,2013-05-29 13:32:00,
2013-05-29 08:42:00,57.0,57.0,-100.00,SE,139,8.0,14.0,100,0.00,,,0.00,182.000000,,2013-05-29 13:42:00,
2013-05-29 08:53:00,57.0,57.0,-100.00,SE,139,8.0,14.0,100,0.00,,,0.00,182.000000,,2013-05-29 13:53:00,
2013-05-29 09:02:00,57.0,57.0,-100.00,SE,139,8.0,14.0,100,0.00,,,0.00,182.000000,,2013-05-29 14:02:00,
2013-05-29 09:11:00,66.0,59.0,-100.00,East,93,9.0,12.0,79,0.00,,,0.00,583.000000,,2013-05-29 14:11:00,
2013-05-29 09:32:00,66.0,59.0,-100.00,East,93,9.0,12.0,79,0.00,,,0.00,583.000000,,2013-05-29 14:32:00,
2013-05-29 09:42:00,66.0,59.0,-100.00,East,93,9.0,12.0,79,0.00,,,0.00,583.000000,,2013-05-29 14:42:00,
2013-05-29 09:52:00,66.0,59.0,-100.00,East,93,9.0,12.0,79,0.00,,,0.00,583.000000,,2013-05-29 14:52:00,
2013-05-29 10:01:00,66.0,59.0,-100.00,East,93,9.0,12.0,79,0.00,,,0.00,583.000000,,2013-05-29 15:01:00,
2013-05-29 10:11:00,69.0,59.0,-100.00,East,94,11.0,16.0,71,0.00,,,0.00,639.000000,,2013-05-29 15:11:00,
2013-05-29 10:33:00,69.0,59.0,-100.00,East,94,11.0,16.0,71,0.00,,,0.00,639.000000,,2013-05-29 15:33:00,
2013-05-29 10:43:00,69.0,59.0,-100.00,East,94,11.0,16.0,71,0.00,,,0.00,639.000000,,2013-05-29 15:43:00,
2013-05-29 10:53:00,69.0,59.0,-100.00,East,94,11.0,16.0,71,0.00,,,0.00,639.000000,,2013-05-29 15:53:00,
2013-05-29 11:03:00,69.0,59.0,-100.00,East,94,11.0,16.0,71,0.00,,,0.00,639.000000,,2013-05-29 16:03:00,
2013-05-29 11:11:00,70.0,61.0,-100.00,East,100,14.0,20.0,74,0.00,,,0.00,708.000000,,2013-05-29 16:11:00,
2013-05-29 11:33:00,70.0,61.0,-100.00,East,100,14.0,20.0,74,0.00,,,0.00,708.000000,,2013-05-29 16:33:00,
2013-05-29 11:42:00,70.0,61.0,-100.00,East,100,14.0,20.0,74,0.00,,,0.00,708.000000,,2013-05-29 16:42:00,
2013-05-29 11:52:00,70.0,61.0,-100.00,East,100,14.0,20.0,74,0.00,,,0.00,708.000000,,2013-05-29 16:52:00,
2013-05-29 12:02:00,70.0,61.0,-100.00,East,100,14.0,20.0,74,0.00,,,0.00,708.000000,,2013-05-29 17:02:00,
2013-05-29 12:11:00,70.0,63.0,-100.00,East,98,11.0,20.0,78,0.00,,,0.00,244.000000,,2013-05-29 17:11:00,
2013-05-29 12:32:00,70.0,63.0,-100.00,East,98,11.0,20.0,78,0.00,,,0.00,244.000000,,2013-05-29 17:32:00,
2013-05-29 12:43:00,70.0,63.0,-100.00,East,98,11.0,20.0,78,0.00,,,0.00,244.000000,,2013-05-29 17:43:00,
2013-05-29 12:52:00,70.0,63.0,-100.00,East,98,11.0,20.0,78,0.00,,,0.00,244.000000,,2013-05-29 17:52:00,
2013-05-29 13:01:00,70.0,63.0,-100.00,East,98,11.0,20.0,78,0.00,,,0.00,244.000000,,2013-05-29 18:01:00,
2013-05-29 13:11:00,68.0,63.0,-100.00,ESE,115,10.0,16.0,85,0.00,,,0.00,120.000000,,2013-05-29 18:11:00,
2013-05-29 13:32:00,68.0,63.0,-100.00,ESE,115,10.0,16.0,85,0.00,,,0.00,120.000000,,2013-05-29 18:32:00,
2013-05-29 13:42:00,68.0,63.0,-100.00,ESE,115,10.0,16.0,85,0.00,,,0.00,120.000000,,2013-05-29 18:42:00,
2013-05-29 13:52:00,68.0,63.0,-100.00,ESE,115,10.0,16.0,85,0.00,,,0.00,120.000000,,2013-05-29 18:52:00,
2013-05-29 14:02:00,68.0,63.0,-100.00,ESE,115,10.0,16.0,85,0.00,,,0.00,120.000000,,2013-05-29 19:02:00,
2013-05-29 14:11:00,69.0,65.0,-100.00,ESE,105,11.0,17.0,88,0.02,,,0.02,191.000000,,2013-05-29 19:11:00,
2013-05-29 14:32:00,69.0,65.0,-100.00,ESE,105,11.0,17.0,88,0.02,,,0.02,191.000000,,2013-05-29 19:32:00,
2013-05-29 14:44:00,69.0,65.0,-100.00,ESE,105,11.0,17.0,88,0.02,,,0.02,191.000000,,2013-05-29 19:44:00,
2013-05-29 14:53:00,69.0,65.0,-100.00,ESE,105,11.0,17.0,88,0.02,,,0.02,191.000000,,2013-05-29 19:53:00,
2013-05-29 15:03:00,69.0,65.0,-100.00,ESE,105,11.0,17.0,88,0.02,,,0.02,191.000000,,2013-05-29 20:03:00,
2013-05-29 15:11:00,69.0,66.0,-100.00,East,97,11.0,17.0,89,0.00,,,0.02,105.000000,,2013-05-29 20:11:00,
2013-05-29 15:33:00,69.0,66.0,-100.00,East,97,11.0,17.0,89,0.00,,,0.02,105.000000,,2013-05-29 20:33:00,
2013-05-29 15:42:00,69.0,66.0,-100.00,East,97,11.0,17.0,89,0.00,,,0.02,105.000000,,2013-05-29 20:42:00,
2013-05-29 15:53:00,69.0,66.0,-100.00,East,97,11.0,17.0,89,0.00,,,0.02,105.000000,,2013-05-29 20:53:00,
2013-05-29 16:02:00,69.0,66.0,-100.00,East,97,11.0,17.0,89,0.00,,,0.02,105.000000,,2013-05-29 21:02:00,
2013-05-29 16:11:00,73.0,66.0,-100.00,East,100,12.0,20.0,80,0.00,,,0.02,379.000000,,2013-05-29 21:11:00,
2013-05-29 16:33:00,73.0,66.0,-100.00,East,100,12.0,20.0,80,0.00,,,0.02,379.000000,,2013-05-29 21:33:00,
2013-05-29 16:44:00,73.0,66.0,-100.00,East,100,12.0,20.0,80,0.00,,,0.02,379.000000,,2013-05-29 21:44:00,
2013-05-29 16:53:00,73.0,66.0,-100.00,East,100,12.0,20.0,80,0.00,,,0.02,379.000000,,2013-05-29 21:53:00,
2013-05-29 17:03:00,73.0,66.0,-100.00,East,100,12.0,20.0,80,0.00,,,0.02,379.000000,,2013-05-29 22:03:00,
2013-05-29 17:11:00,74.0,62.0,-100.00,SE,135,13.0,25.0,67,0.00,,,0.02,524.000000,,2013-05-29 22:11:00,
2013-05-29 17:34:00,74.0,62.0,-100.00,SE,135,13.0,25.0,67,0.00,,,0.02,524.000000,,2013-05-29 22:34:00,
2013-05-29 17:42:00,74.0,62.0,-100.00,SE,135,13.0,25.0,67,0.00,,,0.02,524.000000,,2013-05-29 22:42:00,
2013-05-29 17:53:00,74.0,62.0,-100.00,SE,135,13.0,25.0,67,0.00,,,0.02,524.000000,,2013-05-29 22:53:00,
2013-05-29 18:02:00,74.0,62.0,-100.00,SE,135,13.0,25.0,67,0.00,,,0.02,524.000000,,2013-05-29 23:02:00,
2013-05-29 18:11:00,74.0,65.0,-100.00,SE,128,14.0,22.0,73,0.00,,,0.02,354.000000,,2013-05-29 23:11:00,
2013-05-29 18:33:00,74.0,65.0,-100.00,SE,128,14.0,22.0,73,0.00,,,0.02,354.000000,,2013-05-29 23:33:00,
2013-05-29 18:42:00,74.0,65.0,-100.00,SE,128,14.0,22.0,73,0.00,,,0.02,354.000000,,2013-05-29 23:42:00,
2013-05-29 18:53:00,74.0,65.0,-100.00,SE,128,14.0,22.0,73,0.00,,,0.02,354.000000,,2013-05-29 23:53:00,
2013-05-29 19:01:00,74.0,65.0,-100.00,SE,128,14.0,22.0,73,0.00,,,0.02,354.000000,,2013-05-30 00:01:00,
2013-05-29 20:11:00,72.0,66.0,-100.00,SE,135,11.0,21.0,81,-99.99,,,0.02,76.000000,,2013-05-30 01:11:00,
2013-05-29 20:32:00,72.0,66.0,-100.00,SE,135,11.0,21.0,81,-99.99,,,0.02,76.000000,,2013-05-30 01:32:00,
2013-05-29 20:42:00,72.0,66.0,-100.00,SE,135,11.0,21.0,81,-99.99,,,0.02,76.000000,,2013-05-30 01:42:00,
2013-05-29 20:52:00,72.0,66.0,-100.00,SE,135,11.0,21.0,81,-99.99,,,0.02,76.000000,,2013-05-30 01:52:00,
2013-05-29 21:01:00,72.0,66.0,-100.00,SE,135,11.0,21.0,81,-99.99,,,0.02,76.000000,,2013-05-30 02:01:00,
2013-05-29 21:11:00,70.0,65.0,-100.00,SE,133,13.0,18.0,85,0.00,,,0.02,12.000000,,2013-05-30 02:11:00,
2013-05-29 21:32:00,70.0,65.0,-100.00,SE,133,13.0,18.0,85,0.00,,,0.02,12.000000,,2013-05-30 02:32:00,
2013-05-29 21:42:00,70.0,65.0,-100.00,SE,133,13.0,18.0,85,0.00,,,0.02,12.000000,,2013-05-30 02:42:00,
2013-05-29 21:52:00,70.0,65.0,-100.00,SE,133,13.0,18.0,85,0.00,,,0.02,12.000000,,2013-05-30 02:52:00,
2013-05-29 22:02:00,70.0,65.0,-100.00,SE,133,13.0,18.0,85,0.00,,,0.02,12.000000,,2013-05-30 03:02:00,
2013-05-29 22:11:00,69.0,66.0,-100.00,SE,137,9.0,17.0,90,0.00,,,0.02,0.000000,,2013-05-30 03:11:00,
2013-05-29 22:33:00,69.0,66.0,-100.00,SE,137,9.0,17.0,90,0.00,,,0.02,0.000000,,2013-05-30 03:33:00,
2013-05-29 22:43:00,69.0,66.0,-100.00,SE,137,9.0,17.0,90,0.00,,,0.02,0.000000,,2013-05-30 03:43:00,
2013-05-29 22:53:00,69.0,66.0,-100.00,SE,137,9.0,17.0,90,0.00,,,0.02,0.000000,,2013-05-30 03:53:00,
2013-05-29 23:03:00,69.0,66.0,-100.00,SE,137,9.0,17.0,90,0.00,,,0.02,0.000000,,2013-05-30 04:03:00,
2013-05-29 23:11:00,67.0,64.0,-100.00,SE,144,12.0,17.0,90,0.00,,,0.02,0.000000,,2013-05-30 04:11:00,
2013-05-29 23:33:00,67.0,64.0,-100.00,SE,144,12.0,17.0,90,0.00,,,0.02,0.000000,,2013-05-30 04:33:00,
2013-05-29 23:42:00,67.0,64.0,-100.00,SE,144,12.0,17.0,90,0.00,,,0.02,0.000000,,2013-05-30 04:42:00,
2013-05-29 23:53:00,67.0,64.0,-100.00,SE,144,12.0,17.0,90,0.00,,,0.02,0.000000,,2013-05-30 04:53:00,